[[{"header":{"parameterUnit":"m.s-1","parameterCategory":2,"la1":30.2991,"la2":30.254,"lo1":-89.0895,"lo2":-89.0444,"dy":0.0017,"dx":0.0017,"nx":28,"ny":28,"refTime":"2025-07-02T21:00:00:Z","depth":"0","parameterNumber":2,"parameterNumberName":"U-component_of_CURRENTS"},"data":[0,0,0,0,0,0,0,0,0,0,0,0,0,0,0,0,0,0,0,0,0,0,0,0,0,0,0,0,0,0,0,0,0,0,0,0,0,0,0,0,0,0,0,0,0,0,0,0,0,0,0,0,0,0,0,0,0,0,0.1909,0.1909,0,0.1945,0.1946,0.1947,0.2026,0.2027,0.2028,0.2028,0.2202,0.2206,0.2209,0,0,0,0,0,0,0,0,0,0,0,0,0,0.1898,0.1898,0.1909,0.1909,0.1909,0.1945,0.1946,0.1947,0.2025,0.2027,0.2028,0.2029,0.2201,0.2205,0.221,0,0,0,0,0,0,0,0,0,0,0,0,0,0.1921,0.1898,0.1909,0.1947,0.195,0.1944,0.1946,0.1947,0.2025,0.2027,0.2028,0.2029,0.2199,0.2205,0.221,0.2215,0,0,0.2227,0.223,0,0,0,0,0,0,0,0,0.192,0.1923,0.1942,0.1945,0.1948,0.1976,0.2005,0.2041,0.2025,0.2004,0.2028,0.203,0.2134,0.2145,0.2156,0.2224,0.2231,0.2228,0.2231,0.2234,0.2235,0,0,0,0,0,0,0,0.1918,0.1921,0.193,0.1941,0.1945,0.1958,0.1964,0.2012,0.2068,0.2006,0.201,0.2003,0.2138,0.215,0.2161,0.2234,0.2228,0.2233,0.2236,0.2238,0.241,0.2411,0,0,0,0,0,0,0.1899,0.192,0.1929,0.1931,0.1929,0.1956,0.1963,0.1971,0.2065,0.2077,0.2001,0.2006,0.214,0.2154,0.2168,0.2264,0.2234,0.2239,0.2242,0.2408,0.241,0.2411,0,0,0,0,0,0,0.1899,0.19,0.1928,0.192,0.1923,0.1954,0.1963,0.1971,0.199,0.2058,0.2075,0.2011,0.2142,0.216,0.2231,0.2269,0.2241,0.2246,0.2407,0.2409,0.2411,0.2403,0,0,0,0,0,0,0.1899,0.19,0.1905,0.1919,0.1923,0.1934,0.1961,0.1971,0.1979,0.1986,0.2072,0.209,0.2144,0.2223,0.2237,0.2276,0.2251,0.2405,0.2408,0.241,0.2402,0.2405,0.2407,0,0,0,0,0,0.1898,0.1906,0.1905,0.1906,0.1927,0.1933,0.1938,0.1969,0.1978,0.1991,0.2054,0.2087,0.2248,0.2228,0.2244,0.2286,0.2404,0.2407,0.241,0.2401,0.2404,0.2407,0,0,0,0,0,0,0.1904,0.1914,0.1914,0.1924,0.1926,0.1944,0.1952,0.1961,0.2016,0.2027,0.2097,0.2119,0.2196,0.2235,0.2211,0.2341,0.2333,0.2339,0.2321,0.2325,0.2327,0.2309,0.2255,0,0,0,0,0,0.1901,0.1915,0.1913,0.1921,0.1917,0.1928,0.1933,0.1947,0.1986,0.2011,0.2068,0.214,0.2216,0.2264,0.2323,0.239,0.2423,0.2429,0.2431,0.2433,0.243,0.2502,0.251,0.242,0.242,0.242,0,0,0.1903,0.1909,0.1916,0.1922,0.1926,0.1931,0.1938,0.1941,0.1965,0.2022,0.2083,0.2141,0.2231,0.2314,0.2353,0.2357,0.2479,0.2436,0.2437,0.2434,0.2506,0.2514,0.2522,0.2422,0.2422,0.2421,0,0,0.1905,0.1915,0.192,0.1923,0.1917,0.193,0.1925,0.1939,0.1968,0.2015,0.2077,0.215,0.2248,0.233,0.2384,0.2431,0.2479,0.2457,0.2472,0.2542,0.255,0.2557,0.2618,0.2631,0.2471,0.2471,0.2471,0,0.1905,0.1912,0.192,0.192,0.1926,0.1927,0.193,0.1956,0.1998,0.2033,0.2036,0.2195,0.2259,0.2387,0.2411,0.2437,0.2481,0.2454,0.2544,0.2552,0.2559,0.2621,0.2635,0.2471,0.2471,0.2471,0.2471,0,0.191,0.1911,0.1911,0.1922,0.1932,0.1933,0.1955,0.1981,0.2005,0.204,0.2138,0.2221,0.2322,0.236,0.2405,0.2508,0.2523,0.2527,0.2532,0.2568,0.263,0.2645,0.2471,0.2471,0.2471,0.2471,0,0,0.1939,0.1916,0.1921,0.1919,0.1933,0.1944,0.1982,0.2027,0.2067,0.2117,0.2185,0.2308,0.2341,0.2403,0.2471,0.2536,0.2627,0.2556,0.256,0.2608,0.2785,0.2703,0.2711,0.2651,0.2654,0.2656,0.2809,0,0.1942,0.1925,0.1932,0.1943,0.1937,0.1964,0.2004,0.2051,0.2099,0.2166,0.2253,0.2338,0.2365,0.242,0.249,0.2592,0.2665,0.2584,0.275,0.2755,0.267,0.2725,0.2577,0.2693,0.2824,0.2826,0.2828,0,0.1961,0.1945,0.193,0.1946,0.1951,0.1968,0.2039,0.2075,0.2167,0.2208,0.2298,0.2357,0.248,0.2475,0.2664,0.2614,0.2698,0.2763,0.2771,0.2703,0.2699,0.2678,0.2715,0.2598,0.2851,0.2849,0.2848,0,0.1978,0.1966,0.1951,0.1953,0.1963,0.1986,0.2013,0.2089,0.2132,0.2235,0.2278,0.2414,0.2485,0.2605,0.2718,0.2711,0.2896,0.2907,0.2917,0.2913,0.2822,0.2804,0.2752,0.3034,0.3034,0.3034,0.3033,0,0.1992,0.1993,0.1951,0.1947,0.1962,0.1981,0.203,0.2078,0.215,0.2209,0.2298,0.2372,0.2518,0.263,0.2736,0.2859,0.2918,0.2927,0.2949,0.2814,0.2795,0.2715,0.2668,0.3039,0.3038,0.3037,0.3036,0,0.2012,0.1982,0.1966,0.1955,0.196,0.1973,0.2016,0.2056,0.2123,0.2201,0.2232,0.2363,0.2501,0.2628,0.2822,0.2873,0.2912,0.3028,0.2846,0.2842,0.2719,0.2677,0.2625,0.2595,0.3081,0.308,0.3079,0,0.2015,0.1996,0.1961,0.1953,0.1944,0.1962,0.1982,0.2039,0.2079,0.2198,0.2236,0.237,0.2461,0.2681,0.2792,0.2948,0.2875,0.2886,0.2837,0.2688,0.2662,0.2584,0.2559,0.2735,0.2731,0.2728,0.2726,0,0.2019,0.1995,0.1973,0.1941,0.1943,0.1943,0.1971,0.1992,0.2068,0.2118,0.2198,0.227,0.2465,0.2532,0.2693,0.278,0.2703,0.2828,0.2734,0.2426,0.2282,0.227,0.2657,0.2699,0.2702,0.2704,0.2705,0.2706,0.2024,0.1997,0.1954,0.1931,0.1928,0.191,0.1887,0.1924,0.1949,0.198,0.2099,0.2134,0.2252,0.2457,0.2525,0.2489,0.2568,0.2431,0.2413,0.2365,0.2247,0.2556,0.2573,0.2575,0.2576,0.2578,0.2579,0,0.1997,0.1969,0.1951,0.1901,0.1869,0.1872,0.1866,0.1817,0.1801,0.185,0.1878,0.1906,0.1965,0.2069,0.2118,0.2065,0.2057,0.2007,0.1861,0.1882,0.2207,0.2096,0.1934,0.1934,0.1934,0.1934,0.1935,0.1935,0.1985,0.1937,0.1913,0.1843,0.1807,0.1697,0.1659,0.1608,0.1598,0.1537,0.1513,0.1563,0.168,0.1682,0.1641,0.1643,0.1571,0.1486,0.1568,0.1753,0.179,0.1826,0.1708,0.1468,0.1467,0.1173,0.117,0.1168]},{"header":{"parameterUnit":"m.s-1","parameterCategory":2,"la1":30.2991,"la2":30.254,"lo1":-89.0895,"lo2":-89.0444,"dy":0.0017,"dx":0.0017,"nx":28,"ny":28,"refTime":"2025-07-02T21:00:00:Z","depth":"0","parameterNumber":3,"parameterNumberName":"V-component_of_CURRENTS"},"data":[0,0,0,0,0,0,0,0,0,0,0,0,0,0,0,0,0,0,0,0,0,0,0,0,0,0,0,0,0,0,0,0,0,0,0,0,0,0,0,0,0,0,0,0,0,0,0,0,0,0,0,0,0,0,0,0,0,0,-0.0317,-0.0315,0,-0.023,-0.0229,-0.0228,-0.0229,-0.023,-0.0231,-0.0232,-0.0296,-0.0297,-0.0298,0,0,0,0,0,0,0,0,0,0,0,0,0,-0.0347,-0.0348,-0.0317,-0.0315,-0.0314,-0.023,-0.0229,-0.0228,-0.0229,-0.023,-0.0231,-0.0232,-0.0296,-0.0297,-0.0298,0,0,0,0,0,0,0,0,0,0,0,0,0,-0.0308,-0.0348,-0.0317,-0.0302,-0.03,-0.023,-0.0229,-0.0228,-0.0229,-0.023,-0.0231,-0.0233,-0.0296,-0.0297,-0.0298,-0.028,0,0,-0.0303,-0.0303,0,0,0,0,0,0,0,0,-0.031,-0.0307,-0.0306,-0.0303,-0.03,-0.0239,-0.0263,-0.0252,-0.0228,-0.0259,-0.0232,-0.0233,-0.0289,-0.029,-0.0273,-0.0283,-0.0286,-0.0303,-0.0303,-0.0304,-0.0304,0,0,0,0,0,0,0,-0.0313,-0.031,-0.0285,-0.0304,-0.0301,-0.0253,-0.025,-0.026,-0.0272,-0.0256,-0.0255,-0.0241,-0.0289,-0.0272,-0.0275,-0.0287,-0.0303,-0.0304,-0.0305,-0.0305,-0.0286,-0.0285,0,0,0,0,0,0,-0.0324,-0.0313,-0.0288,-0.0282,-0.0305,-0.0252,-0.0249,-0.026,-0.0269,-0.0269,-0.024,-0.0241,-0.0269,-0.0273,-0.0278,-0.0247,-0.0304,-0.0305,-0.0306,-0.0288,-0.0286,-0.0285,0,0,0,0,0,0,-0.0325,-0.0323,-0.0291,-0.0292,-0.0284,-0.0251,-0.0262,-0.0257,-0.0244,-0.0254,-0.0259,-0.0232,-0.027,-0.0276,-0.0279,-0.025,-0.0306,-0.0307,-0.0289,-0.0287,-0.0285,-0.0192,0,0,0,0,0,0,-0.0327,-0.0325,-0.0336,-0.0294,-0.0284,-0.0236,-0.026,-0.0255,-0.0231,-0.0232,-0.0249,-0.0255,-0.0271,-0.0276,-0.028,-0.0253,-0.0308,-0.0291,-0.0288,-0.0286,-0.0197,-0.0187,-0.0179,0,0,0,0,0,-0.0329,-0.0329,-0.0338,-0.0334,-0.0302,-0.0234,-0.0224,-0.0206,-0.023,-0.0205,-0.0225,-0.0255,-0.0264,-0.0276,-0.0281,-0.0254,-0.0292,-0.0289,-0.0286,-0.0201,-0.0189,-0.0179,0,0,0,0,0,0,-0.0342,-0.0328,-0.0337,-0.0334,-0.0284,-0.0233,-0.0209,-0.0204,-0.0196,-0.0211,-0.0238,-0.0244,-0.0235,-0.0258,-0.0271,-0.0241,-0.0283,-0.0281,-0.0216,-0.0205,-0.0197,-0.0177,-0.0309,0,0,0,0,0,-0.0353,-0.0353,-0.0317,-0.0308,-0.0288,-0.0253,-0.0227,-0.0211,-0.0195,-0.0192,-0.0199,-0.0216,-0.0222,-0.0227,-0.0232,-0.0218,-0.0235,-0.0204,-0.0195,-0.0187,-0.0174,-0.0176,-0.0166,-0.0275,-0.0275,-0.0275,0,0,-0.035,-0.0344,-0.0342,-0.031,-0.0278,-0.0227,-0.0241,-0.0193,-0.0156,-0.0203,-0.0168,-0.0185,-0.0212,-0.0188,-0.0187,-0.0207,-0.0164,-0.0183,-0.0176,-0.0167,-0.0172,-0.0161,-0.0152,-0.0273,-0.0273,-0.0274,0,0,-0.0316,-0.0343,-0.0319,-0.0281,-0.023,-0.0206,-0.0193,-0.014,-0.0127,-0.0092,-0.012,-0.0115,-0.012,-0.0119,-0.0128,-0.0075,-0.0116,-0.0084,-0.0022,-0.0024,-0.0014,-0.0007,-0.0007,-0.0,-0.0079,-0.0079,-0.0079,0,-0.0313,-0.0289,-0.0291,-0.0246,-0.021,-0.0198,-0.0141,-0.0115,-0.0068,-0.0051,-0.0073,-0.0057,-0.0081,-0.0055,-0.0034,-0.0052,-0.0065,-0.006,-0.0011,-0.0004,0.0002,-0.0,0.0006,-0.0074,-0.0075,-0.0075,-0.0076,0,-0.025,-0.0227,-0.0201,-0.0157,-0.012,-0.0065,-0.0031,0.0001,0.0005,0.0033,0.0065,0.0048,0.0056,0.0052,0.0023,0.0062,0.0035,0.0001,-0.0037,0.0019,0.0013,0.0018,-0.0067,-0.0069,-0.0071,-0.0072,0,0,-0.0248,-0.0174,-0.0165,-0.0126,-0.0072,-0.0027,0.0022,0.0085,0.0119,0.0148,0.0195,0.0196,0.0184,0.0174,0.0145,0.0148,0.0182,0.0099,0.0096,0.0102,0.0179,0.0164,0.0168,0.015,0.0152,0.0153,0.016,0,-0.0192,-0.0099,-0.0082,0.0013,0.0067,0.0085,0.0132,0.0179,0.0205,0.0253,0.0243,0.027,0.023,0.023,0.0232,0.0187,0.0198,0.0183,0.0121,0.012,0.0103,0.0174,0.0217,0.0228,0.0165,0.0165,0.0166,0,-0.0136,-0.008,0.0015,0.0097,0.0119,0.0169,0.0235,0.0282,0.0333,0.0349,0.0376,0.0366,0.038,0.0329,0.0308,0.0296,0.0255,0.0221,0.022,0.0178,0.0114,0.0159,0.0238,0.0208,0.0173,0.0172,0.0172,0,-0.0121,-0.0016,0.0057,0.009,0.0181,0.0218,0.0257,0.0314,0.0358,0.0409,0.0443,0.0452,0.045,0.0413,0.0347,0.0326,0.0316,0.027,0.0227,0.0225,0.0236,0.0233,0.0284,0.027,0.027,0.027,0.027,0,-0.007,-0.0004,0.0071,0.0119,0.0199,0.0243,0.0322,0.0361,0.0422,0.0486,0.0488,0.053,0.0469,0.0454,0.0387,0.0331,0.0346,0.0263,0.0236,0.027,0.027,0.0221,0.0187,0.027,0.027,0.027,0.027,0,-0.0042,0.0005,0.0098,0.0189,0.0214,0.027,0.0357,0.0416,0.0463,0.0544,0.0562,0.0589,0.0568,0.051,0.0444,0.038,0.0312,0.0297,0.0344,0.0323,0.0247,0.0216,0.0209,0.0211,0.0261,0.0261,0.026,0,-0.0004,0.0043,0.0136,0.0178,0.0226,0.0305,0.0358,0.0425,0.0491,0.0584,0.0628,0.0638,0.0657,0.0568,0.0465,0.0372,0.032,0.0337,0.0307,0.0276,0.0222,0.0185,0.0184,0.0362,0.0363,0.0364,0.0364,0,0.007,0.0086,0.0154,0.0222,0.0285,0.0359,0.0443,0.0496,0.058,0.0648,0.0725,0.0747,0.0689,0.0624,0.0499,0.0429,0.0334,0.0344,0.031,0.0318,0.0285,0.0262,0.0316,0.0369,0.0369,0.0368,0.0368,0.0368,0.0119,0.0162,0.0217,0.028,0.034,0.0406,0.0455,0.0545,0.0634,0.0727,0.0763,0.0801,0.0745,0.0586,0.0504,0.038,0.0348,0.034,0.0309,0.0277,0.0276,0.0342,0.0357,0.0356,0.0356,0.0355,0.0355,0,0.0189,0.0216,0.0273,0.0338,0.0386,0.0412,0.0506,0.055,0.0636,0.0734,0.0789,0.08,0.0716,0.0613,0.0453,0.0366,0.0336,0.032,0.0299,0.0302,0.0372,0.0375,0.0398,0.0398,0.0398,0.0399,0.0399,0.0399,0.0228,0.0283,0.0292,0.036,0.0396,0.0448,0.0488,0.0553,0.0626,0.0709,0.0756,0.0792,0.078,0.0516,0.0362,0.0326,0.0268,0.0256,0.0208,0.0271,0.0271,0.0271,0.0268,0.0269,0.0269,0.018,0.0179,0.0178]}],[{"header":{"parameterUnit":"m.s-1","parameterCategory":2,"la1":30.2991,"la2":30.254,"lo1":-89.0895,"lo2":-89.0444,"dy":0.0017,"dx":0.0017,"nx":28,"ny":28,"refTime":"2025-07-02T21:00:00:Z","depth":"2","parameterNumber":2,"parameterNumberName":"U-component_of_CURRENTS"},"data":[0,0,0,0,0,0,0,0,0,0,0,0,0,0,0,0,0,0,0,0,0,0,0,0,0,0,0,0,0,0,0,0,0,0,0,0,0,0,0,0,0,0,0,0,0,0,0,0,0,0,0,0,0,0,0,0,0,0,0.1108,0.1109,0,0.1084,0.1083,0.1082,0.1098,0.11,0.1101,0.1103,0.1197,0.1198,0.1199,0,0,0,0,0,0,0,0,0,0,0,0,0,0.1089,0.1089,0.1108,0.1109,0.1109,0.1085,0.1083,0.1082,0.1098,0.11,0.1102,0.1103,0.1196,0.1198,0.1199,0,0,0,0,0,0,0,0,0,0,0,0,0,0.1076,0.1089,0.1108,0.1121,0.1122,0.1085,0.1083,0.1082,0.1097,0.11,0.1102,0.1104,0.1196,0.1198,0.1199,0.1162,0,0,0.1204,0.1205,0,0,0,0,0,0,0,0,0.1077,0.1075,0.1118,0.112,0.1122,0.1105,0.1112,0.1118,0.1097,0.1097,0.1103,0.1105,0.1181,0.1184,0.116,0.1166,0.1171,0.1204,0.1205,0.1206,0.1206,0,0,0,0,0,0,0,0.1078,0.1076,0.1089,0.1119,0.1121,0.1102,0.1102,0.1111,0.1121,0.1097,0.1101,0.1112,0.1182,0.1158,0.1163,0.1172,0.1204,0.1205,0.1206,0.1207,0.1313,0.1315,0,0,0,0,0,0,0.11,0.1077,0.109,0.109,0.1115,0.1101,0.1101,0.11,0.1119,0.1126,0.111,0.1113,0.1154,0.1161,0.1166,0.1266,0.1206,0.1207,0.1208,0.1312,0.1314,0.1316,0,0,0,0,0,0,0.11,0.1101,0.1092,0.1091,0.109,0.1101,0.1098,0.1099,0.1099,0.1129,0.1137,0.1115,0.1156,0.1164,0.1213,0.1266,0.1208,0.1209,0.1309,0.1312,0.1315,0.1376,0,0,0,0,0,0,0.1099,0.11,0.1088,0.1092,0.1091,0.1094,0.1097,0.1097,0.1105,0.1109,0.1135,0.1144,0.1159,0.121,0.1214,0.1267,0.1211,0.1307,0.1311,0.1314,0.1372,0.1381,0.1389,0,0,0,0,0,0.1098,0.1074,0.1087,0.1088,0.1079,0.1096,0.1092,0.1101,0.1104,0.1107,0.1137,0.1145,0.1237,0.1212,0.1217,0.1271,0.1305,0.131,0.1314,0.1368,0.1379,0.1388,0,0,0,0,0,0,0.1094,0.1075,0.1088,0.1071,0.1099,0.1103,0.1117,0.1105,0.112,0.1149,0.1153,0.1165,0.1233,0.1235,0.1207,0.1313,0.1278,0.1283,0.1318,0.1328,0.1336,0.1352,0.1212,0,0,0,0,0,0.1081,0.1052,0.1066,0.1072,0.1093,0.1104,0.1106,0.1121,0.1144,0.1151,0.1176,0.1212,0.1244,0.1273,0.1304,0.1345,0.1365,0.1388,0.1396,0.1403,0.142,0.1494,0.1511,0.133,0.133,0.133,0,0,0.1094,0.108,0.1071,0.1067,0.1102,0.1125,0.1112,0.1152,0.1174,0.1163,0.1219,0.1242,0.1261,0.1324,0.1356,0.1338,0.1464,0.1408,0.1414,0.1428,0.15,0.1518,0.1534,0.1333,0.1332,0.1332,0,0,0.1125,0.1104,0.1102,0.1113,0.1157,0.1158,0.1174,0.1203,0.1226,0.1266,0.128,0.1336,0.137,0.1408,0.1424,0.1491,0.1504,0.1504,0.1562,0.1634,0.1649,0.1663,0.1703,0.172,0.151,0.151,0.151,0,0.1136,0.1135,0.1115,0.1134,0.1155,0.1178,0.1215,0.1229,0.1268,0.1302,0.1311,0.1396,0.1416,0.1486,0.1518,0.1514,0.1542,0.152,0.1645,0.166,0.1673,0.171,0.1728,0.1514,0.1513,0.1513,0.1513,0,0.1191,0.1177,0.12,0.1213,0.1228,0.1271,0.1303,0.1339,0.137,0.1388,0.1481,0.1513,0.1566,0.1584,0.1571,0.1676,0.166,0.1645,0.1619,0.1695,0.1729,0.1747,0.1519,0.1517,0.1516,0.1516,0,0,0.1227,0.1224,0.1232,0.1237,0.127,0.129,0.1355,0.1405,0.1451,0.1513,0.1583,0.165,0.1677,0.1697,0.1705,0.1767,0.1878,0.1751,0.1753,0.1789,0.2024,0.1804,0.1802,0.1888,0.1892,0.1895,0.2006,0,0.128,0.1296,0.129,0.1326,0.1339,0.1369,0.141,0.1463,0.152,0.1592,0.1661,0.173,0.1714,0.1757,0.1821,0.187,0.193,0.1849,0.1947,0.195,0.1744,0.1817,0.1658,0.1725,0.2023,0.2026,0.2028,0,0.1333,0.1318,0.1352,0.1347,0.1369,0.1395,0.1473,0.1515,0.1615,0.167,0.1764,0.1809,0.192,0.1892,0.2035,0.1985,0.2016,0.2045,0.205,0.1837,0.1762,0.17,0.1746,0.2058,0.2056,0.2053,0.2051,0,0.1352,0.1356,0.1372,0.1376,0.1389,0.143,0.1461,0.1548,0.1604,0.1732,0.1795,0.1918,0.1995,0.2077,0.2132,0.2104,0.2273,0.2237,0.2068,0.2053,0.1931,0.1895,0.2342,0.2342,0.2341,0.2341,0.2341,0,0.1378,0.1381,0.1375,0.1382,0.1411,0.1434,0.1511,0.1564,0.1666,0.1744,0.1834,0.1926,0.205,0.2146,0.2185,0.2174,0.232,0.2093,0.2074,0.1941,0.1907,0.2202,0.2185,0.2345,0.2344,0.2344,0.2343,0,0.1393,0.1389,0.1393,0.1409,0.1416,0.1447,0.1523,0.1584,0.1666,0.1781,0.183,0.1972,0.2087,0.2169,0.2306,0.2209,0.2243,0.2199,0.2007,0.1958,0.1963,0.1948,0.2025,0.2018,0.2012,0.2007,0.2003,0,0.1412,0.1408,0.1415,0.1433,0.1445,0.1486,0.1526,0.1591,0.1656,0.1804,0.1861,0.1999,0.2072,0.2144,0.2072,0.2066,0.2172,0.1831,0.1717,0.196,0.1936,0.1929,0.1921,0.1608,0.1601,0.1596,0.1591,0,0.1432,0.1434,0.1437,0.1463,0.1496,0.1519,0.1576,0.1603,0.1692,0.175,0.1853,0.192,0.1972,0.1868,0.1788,0.1759,0.1807,0.1701,0.2089,0.1656,0.156,0.1537,0.1546,0.1541,0.1546,0.155,0.1552,0.1554,0.146,0.1464,0.1472,0.1493,0.152,0.153,0.1519,0.1563,0.1587,0.1608,0.1741,0.1726,0.1668,0.1451,0.1424,0.1377,0.1461,0.1348,0.1371,0.1399,0.1273,0.1166,0.1051,0.1053,0.1055,0.1057,0.1058,0,0.1475,0.148,0.1507,0.15,0.1494,0.1518,0.1529,0.147,0.1425,0.146,0.147,0.1257,0.1141,0.1184,0.1013,0.0903,0.098,0.0878,0.099,0.1034,0.1075,0.0941,0.0628,0.0628,0.0628,0.0627,0,0,0.1464,0.1486,0.1477,0.145,0.1445,0.137,0.1337,0.1255,0.1222,0.1128,0.1072,0.104,0.1067,0.0801,0.0736,0.0696,0.0889,0.0671,0.1,0.1176,0.1219,0.1305,0.1138,0,0,0,0,0]},{"header":{"parameterUnit":"m.s-1","parameterCategory":2,"la1":30.2991,"la2":30.254,"lo1":-89.0895,"lo2":-89.0444,"dy":0.0017,"dx":0.0017,"nx":28,"ny":28,"refTime":"2025-07-02T21:00:00:Z","depth":"2","parameterNumber":3,"parameterNumberName":"V-component_of_CURRENTS"},"data":[0,0,0,0,0,0,0,0,0,0,0,0,0,0,0,0,0,0,0,0,0,0,0,0,0,0,0,0,0,0,0,0,0,0,0,0,0,0,0,0,0,0,0,0,0,0,0,0,0,0,0,0,0,0,0,0,0,0,0.0089,0.009,0,0.0206,0.0208,0.0209,0.0224,0.0222,0.022,0.0218,0.009,0.0088,0.0087,0,0,0,0,0,0,0,0,0,0,0,0,0,0.0043,0.0044,0.0089,0.009,0.0091,0.0205,0.0208,0.021,0.0224,0.0222,0.022,0.0218,0.0091,0.0089,0.0087,0,0,0,0,0,0,0,0,0,0,0,0,0,0.0108,0.0044,0.0089,0.0107,0.0109,0.0205,0.0208,0.0211,0.0224,0.0222,0.0219,0.0217,0.0091,0.0089,0.0086,0.0122,0,0,0.0078,0.0077,0,0,0,0,0,0,0,0,0.0104,0.011,0.0103,0.0105,0.0108,0.0192,0.0145,0.0167,0.0225,0.0187,0.0218,0.0215,0.0099,0.0096,0.0136,0.0116,0.0111,0.0078,0.0076,0.0075,0.0074,0,0,0,0,0,0,0,0.0099,0.0106,0.0142,0.0104,0.0107,0.0165,0.017,0.0151,0.0157,0.019,0.019,0.0194,0.0099,0.0139,0.0132,0.0109,0.0078,0.0076,0.0074,0.0073,0.0037,0.0038,0,0,0,0,0,0,0.0066,0.0101,0.0138,0.0145,0.0092,0.0167,0.0173,0.0173,0.0163,0.0159,0.0196,0.0194,0.0145,0.0136,0.0127,0.0107,0.0075,0.0073,0.0071,0.0037,0.0037,0.0038,0,0,0,0,0,0,0.0065,0.0068,0.0133,0.0121,0.0132,0.0168,0.0169,0.0176,0.0204,0.0168,0.016,0.0212,0.0143,0.0131,0.0114,0.0103,0.0071,0.0069,0.0036,0.0037,0.0038,0.0102,0,0,0,0,0,0,0.0063,0.0067,0.0071,0.0118,0.0131,0.0172,0.0171,0.018,0.0207,0.0206,0.018,0.0167,0.014,0.0119,0.0111,0.0098,0.0067,0.0035,0.0036,0.0038,0.0099,0.0106,0.0111,0,0,0,0,0,0.0061,0.0077,0.007,0.0075,0.0129,0.0171,0.0185,0.0207,0.021,0.0224,0.0217,0.0167,0.012,0.0118,0.0109,0.0095,0.0034,0.0036,0.0037,0.0097,0.0104,0.0111,0,0,0,0,0,0,0.0033,0.0081,0.0074,0.0094,0.0116,0.017,0.0179,0.0211,0.023,0.0208,0.0191,0.0178,0.0158,0.0125,0.0124,0.0089,0.0062,0.0062,0.0111,0.0117,0.0123,0.0122,0.0065,0,0,0,0,0,0.0033,0.0058,0.0094,0.0095,0.0101,0.0143,0.0167,0.0181,0.0199,0.0207,0.0193,0.017,0.0166,0.0139,0.0123,0.0109,0.0085,0.009,0.0095,0.01,0.0095,0.0074,0.0077,0.0043,0.0043,0.0043,0,0,0.0011,0.004,0.0049,0.0092,0.0101,0.0144,0.0151,0.0166,0.02,0.0183,0.0201,0.019,0.0171,0.0162,0.0146,0.0124,0.01,0.0102,0.0107,0.0098,0.0076,0.0079,0.0082,0.0044,0.0044,0.0044,0,0,-0.0008,0.0003,0.0025,0.0059,0.0082,0.0124,0.0128,0.0173,0.0179,0.021,0.0205,0.0199,0.0184,0.0178,0.0174,0.02,0.0141,0.0175,0.0189,0.0171,0.0173,0.0175,0.0163,0.0163,0.0166,0.0166,0.0166,0,-0.003,0.0007,0.0032,0.0067,0.0098,0.0117,0.0153,0.018,0.0217,0.0224,0.0202,0.0224,0.0198,0.0215,0.0221,0.021,0.0189,0.0168,0.0178,0.0179,0.018,0.0167,0.0166,0.0169,0.0169,0.0169,0.0168,0,-0.0025,0.0016,0.002,0.0085,0.012,0.0145,0.0183,0.0205,0.0219,0.025,0.0254,0.0244,0.0252,0.0242,0.0239,0.0235,0.0216,0.0199,0.0162,0.0187,0.0172,0.017,0.0174,0.0173,0.0172,0.0171,0,0,-0.007,0.0016,0.0023,0.0069,0.0138,0.0175,0.0208,0.0265,0.0293,0.0296,0.0327,0.0324,0.0308,0.0302,0.0286,0.0263,0.0259,0.0227,0.0224,0.0217,0.0216,0.0245,0.0245,0.0237,0.0236,0.0236,0.0208,0,-0.0066,0.0012,0.0058,0.0144,0.0195,0.0235,0.0279,0.032,0.0338,0.0366,0.0342,0.036,0.0332,0.0329,0.0305,0.0276,0.0254,0.0268,0.0189,0.0187,0.0212,0.0244,0.0211,0.0187,0.0206,0.0206,0.0205,0,-0.0048,0.0015,0.0087,0.0204,0.0222,0.0275,0.0351,0.0388,0.0418,0.0422,0.0423,0.041,0.0397,0.0357,0.0307,0.0313,0.0265,0.0233,0.0231,0.023,0.0213,0.0161,0.0183,0.0202,0.0202,0.0202,0.0203,0,-0.0054,0.0054,0.0117,0.0156,0.0271,0.03,0.0351,0.0398,0.043,0.0449,0.0473,0.0449,0.044,0.0378,0.0319,0.0305,0.0254,0.0228,0.0211,0.0213,0.0156,0.0153,0.0181,0.0181,0.0181,0.0181,0.0181,0,-0.0023,0.0046,0.012,0.0167,0.0243,0.0305,0.0369,0.0409,0.0457,0.0507,0.0491,0.0516,0.0439,0.0407,0.0335,0.0281,0.0267,0.0222,0.021,0.018,0.0181,0.0163,0.0161,0.018,0.0181,0.0181,0.0181,0,-0.0006,0.0034,0.0126,0.022,0.0247,0.0296,0.0391,0.0442,0.0481,0.0541,0.055,0.0564,0.0525,0.0455,0.0364,0.0318,0.0252,0.023,0.0211,0.0198,0.0216,0.0217,0.0209,0.0209,0.021,0.0211,0.0211,0,0.002,0.0062,0.0145,0.0182,0.0229,0.0305,0.0359,0.0434,0.0493,0.0577,0.0611,0.0601,0.0606,0.0506,0.0394,0.0288,0.0271,0.0217,0.0191,0.023,0.0219,0.022,0.0221,0.0137,0.0136,0.0136,0.0136,0,0.0086,0.0091,0.0156,0.0208,0.0265,0.0343,0.0426,0.0478,0.057,0.0627,0.0693,0.0702,0.062,0.0503,0.0382,0.0312,0.0234,0.0214,0.0247,0.0152,0.0164,0.0154,0.0156,0.0135,0.0135,0.0135,0.0135,0.0135,0.0126,0.0161,0.0205,0.0261,0.0314,0.0379,0.043,0.0521,0.0606,0.0682,0.0711,0.0709,0.0584,0.0406,0.0314,0.023,0.0236,0.0185,0.0183,0.0182,0.0196,0.0211,0.0193,0.0193,0.0194,0.0194,0.0194,0,0.0196,0.0219,0.0264,0.0319,0.0365,0.0387,0.0482,0.0523,0.0603,0.0664,0.0699,0.0575,0.0472,0.0367,0.0231,0.0164,0.014,0.015,0.0109,0.011,0.0111,0.012,0.0097,0.0097,0.0097,0.0097,0,0,0.0239,0.0284,0.0292,0.0355,0.0387,0.0437,0.0477,0.0525,0.0571,0.0606,0.0606,0.0565,0.0464,0.0324,0.0217,0.0165,0.0162,0.0159,0.024,0.0204,0.0206,0.013,0.0146,0,0,0,0,0]}],[{"header":{"parameterUnit":"m.s-1","parameterCategory":2,"la1":30.2991,"la2":30.254,"lo1":-89.0895,"lo2":-89.0444,"dy":0.0017,"dx":0.0017,"nx":28,"ny":28,"refTime":"2025-07-02T21:00:00:Z","depth":"4","parameterNumber":2,"parameterNumberName":"U-component_of_CURRENTS"},"data":[0,0,0,0,0,0,0,0,0,0,0,0,0,0,0,0,0,0,0,0,0,0,0,0,0,0,0,0,0,0,0,0,0,0,0,0,0,0,0,0,0,0,0,0,0,0,0,0,0,0,0,0,0,0,0,0,0,0,-0.0382,-0.0383,0,-0.047,-0.0471,-0.0472,-0.0495,-0.0495,-0.0495,-0.0494,-0.0599,-0.0602,-0.0605,0,0,0,0,0,0,0,0,0,0,0,0,0,-0.0321,-0.0322,-0.0382,-0.0383,-0.0385,-0.047,-0.0471,-0.0472,-0.0495,-0.0495,-0.0494,-0.0494,-0.0598,-0.0602,-0.0606,0,0,0,0,0,0,0,0,0,0,0,0,0,-0.0371,-0.0322,-0.0382,-0.0407,-0.041,-0.0469,-0.0471,-0.0472,-0.0496,-0.0495,-0.0494,-0.0494,-0.0597,-0.0601,-0.0606,-0.0649,0,0,-0.0621,-0.0623,0,0,0,0,0,0,0,0,-0.0368,-0.0373,-0.0402,-0.0405,-0.0409,-0.0472,-0.0488,-0.0532,-0.0496,-0.0462,-0.0494,-0.0493,-0.0559,-0.0567,-0.0584,-0.0654,-0.0659,-0.0621,-0.0624,-0.0626,-0.0628,0,0,0,0,0,0,0,-0.0365,-0.037,-0.0416,-0.0404,-0.0408,-0.0444,-0.0449,-0.0497,-0.0513,-0.0465,-0.0467,-0.0479,-0.0561,-0.0579,-0.0586,-0.066,-0.0621,-0.0625,-0.0628,-0.063,-0.0842,-0.0845,0,0,0,0,0,0,-0.0352,-0.0366,-0.0413,-0.0419,-0.0388,-0.0445,-0.0451,-0.0452,-0.0512,-0.0521,-0.0479,-0.0479,-0.0571,-0.0581,-0.059,-0.0706,-0.0626,-0.0631,-0.0634,-0.0839,-0.0843,-0.0846,0,0,0,0,0,0,-0.035,-0.0355,-0.041,-0.0396,-0.0405,-0.0446,-0.0447,-0.0454,-0.0493,-0.0523,-0.0531,-0.0514,-0.0571,-0.0583,-0.0689,-0.0707,-0.0633,-0.0637,-0.0836,-0.0841,-0.0844,-0.0898,0,0,0,0,0,0,-0.0348,-0.0353,-0.0361,-0.0395,-0.0406,-0.048,-0.0448,-0.0456,-0.05,-0.0502,-0.0556,-0.0563,-0.0571,-0.0682,-0.0693,-0.0713,-0.0641,-0.0833,-0.0838,-0.0843,-0.0892,-0.0903,-0.0912,0,0,0,0,0,-0.0345,-0.0356,-0.0361,-0.0368,-0.0411,-0.0483,-0.0494,-0.0519,-0.0503,-0.0546,-0.0593,-0.0563,-0.072,-0.069,-0.0702,-0.0723,-0.083,-0.0837,-0.0843,-0.0888,-0.0901,-0.0912,0,0,0,0,0,0,-0.0336,-0.036,-0.0366,-0.0384,-0.0446,-0.0488,-0.0513,-0.0536,-0.0604,-0.0588,-0.0622,-0.0636,-0.0728,-0.0734,-0.0699,-0.0801,-0.0761,-0.077,-0.0791,-0.0803,-0.0813,-0.0756,-0.0645,0,0,0,0,0,-0.0337,-0.035,-0.0397,-0.0419,-0.0438,-0.048,-0.0512,-0.0528,-0.0584,-0.061,-0.0643,-0.0685,-0.076,-0.0791,-0.0842,-0.0913,-0.0888,-0.0929,-0.0938,-0.0946,-0.0911,-0.0948,-0.0957,-0.0866,-0.0866,-0.0866,0,0,-0.0344,-0.0356,-0.0368,-0.042,-0.0449,-0.0497,-0.0498,-0.054,-0.0592,-0.0612,-0.068,-0.0728,-0.0793,-0.0872,-0.0909,-0.0881,-0.0961,-0.0954,-0.0961,-0.092,-0.0956,-0.0964,-0.0971,-0.087,-0.0869,-0.0869,0,0,-0.035,-0.0369,-0.0375,-0.0426,-0.0472,-0.0512,-0.0533,-0.0579,-0.0613,-0.069,-0.0727,-0.0806,-0.0874,-0.0945,-0.0988,-0.1089,-0.1021,-0.1085,-0.1079,-0.1117,-0.1124,-0.1129,-0.1102,-0.1105,-0.1079,-0.1079,-0.1079,0,-0.0351,-0.0362,-0.0401,-0.0425,-0.0463,-0.0523,-0.0556,-0.062,-0.0699,-0.0738,-0.0709,-0.0856,-0.0909,-0.1052,-0.1066,-0.1109,-0.1079,-0.1028,-0.1126,-0.1131,-0.1135,-0.1106,-0.1108,-0.1082,-0.1082,-0.1082,-0.1081,0,-0.0366,-0.0382,-0.0394,-0.0442,-0.0506,-0.0543,-0.0627,-0.0688,-0.071,-0.076,-0.087,-0.0947,-0.1011,-0.1062,-0.1082,-0.1163,-0.1114,-0.1141,-0.1084,-0.1147,-0.1113,-0.1114,-0.1087,-0.1086,-0.1085,-0.1084,0,0,-0.033,-0.0385,-0.0384,-0.0413,-0.0505,-0.0559,-0.0654,-0.0762,-0.0826,-0.0879,-0.0952,-0.1073,-0.1061,-0.1108,-0.1163,-0.1199,-0.1211,-0.115,-0.115,-0.1098,-0.1222,-0.1038,-0.102,-0.1237,-0.1237,-0.1238,-0.1182,0,-0.0321,-0.034,-0.0388,-0.0458,-0.0487,-0.0584,-0.0682,-0.0791,-0.0866,-0.0955,-0.1041,-0.1103,-0.1103,-0.1102,-0.1152,-0.1213,-0.1214,-0.1218,-0.1187,-0.1185,-0.0995,-0.1017,-0.1241,-0.1182,-0.1182,-0.1182,-0.1182,0,-0.0311,-0.0325,-0.034,-0.0456,-0.0479,-0.0518,-0.0667,-0.0758,-0.0918,-0.0962,-0.1032,-0.1085,-0.1162,-0.1128,-0.1207,-0.1193,-0.1169,-0.1204,-0.1204,-0.1,-0.1001,-0.1112,-0.1183,-0.1183,-0.1183,-0.1183,-0.1183,0,-0.0257,-0.0313,-0.0311,-0.0345,-0.047,-0.0483,-0.0548,-0.0711,-0.0806,-0.0906,-0.0954,-0.1069,-0.1077,-0.1116,-0.1138,-0.1148,-0.12,-0.1244,-0.1063,-0.1049,-0.1207,-0.1202,-0.125,-0.125,-0.125,-0.1251,-0.1251,0,-0.0237,-0.0261,-0.0251,-0.0261,-0.0283,-0.0383,-0.0445,-0.0542,-0.0686,-0.0768,-0.0885,-0.093,-0.1058,-0.1115,-0.1133,-0.1069,-0.1179,-0.1026,-0.102,-0.1233,-0.1231,-0.1207,-0.1202,-0.1248,-0.1249,-0.1249,-0.125,0,-0.0206,-0.0202,-0.0208,-0.0242,-0.0242,-0.0234,-0.0339,-0.0425,-0.0531,-0.0629,-0.0631,-0.0809,-0.0812,-0.0954,-0.1016,-0.1014,-0.1018,-0.0961,-0.1126,-0.1138,-0.0838,-0.0839,-0.0748,-0.0741,-0.0735,-0.073,-0.0726,0,-0.0202,-0.018,-0.0142,-0.0108,-0.009,-0.0095,-0.0141,-0.0287,-0.037,-0.0521,-0.0557,-0.0605,-0.0686,-0.0662,-0.0785,-0.0811,-0.0805,-0.0804,-0.0852,-0.0781,-0.0787,-0.0796,-0.0804,-0.0716,-0.0715,-0.0713,-0.0711,0,-0.0197,-0.0142,-0.0121,-0.0031,0.0001,-0.0043,-0.0072,-0.0123,-0.0281,-0.0395,-0.0404,-0.0427,-0.0445,-0.0507,-0.0528,-0.0561,-0.0827,-0.0743,-0.0756,-0.08,-0.0742,-0.0756,-0.077,-0.0691,-0.0694,-0.0696,-0.0697,0,-0.0167,-0.0118,-0.0044,0.0022,0.0051,0.0037,-0.0006,-0.0052,-0.0141,-0.0288,-0.0238,-0.0309,-0.037,-0.0367,-0.0392,-0.0403,-0.04,-0.042,-0.0451,-0.0475,-0.0421,-0.031,-0.0087,0,0,0,0,0,-0.0127,-0.0076,-0.0026,0.0037,0.0054,0.0066,0.0011,-0.0056,-0.0158,-0.0117,-0.0182,-0.0161,-0.0158,-0.0207,-0.0164,-0.0305,-0.0442,-0.0257,-0.049,-0.0576,-0.06,-0.0567,0,0,0,0,0,0,-0.0098,-0.0033,-0.0018,0.0028,0.0071,0.005,0.004,-0.0032,-0.0019,-0.0081,-0.0079,-0.0103,-0.0125,-0.0155,-0.0144,-0.0159,-0.0287,-0.0288,-0.0286,-0.0563,-0.0584,-0.0604,-0.0578,0,0,0,0,0]},{"header":{"parameterUnit":"m.s-1","parameterCategory":2,"la1":30.2991,"la2":30.254,"lo1":-89.0895,"lo2":-89.0444,"dy":0.0017,"dx":0.0017,"nx":28,"ny":28,"refTime":"2025-07-02T21:00:00:Z","depth":"4","parameterNumber":3,"parameterNumberName":"V-component_of_CURRENTS"},"data":[0,0,0,0,0,0,0,0,0,0,0,0,0,0,0,0,0,0,0,0,0,0,0,0,0,0,0,0,0,0,0,0,0,0,0,0,0,0,0,0,0,0,0,0,0,0,0,0,0,0,0,0,0,0,0,0,0,0,0.0354,0.0354,0,0.0369,0.0369,0.0369,0.0435,0.0437,0.0438,0.044,0.0499,0.0499,0.0499,0,0,0,0,0,0,0,0,0,0,0,0,0,0.0376,0.0375,0.0354,0.0354,0.0354,0.0369,0.0369,0.0369,0.0435,0.0437,0.0439,0.0441,0.0499,0.0499,0.0499,0,0,0,0,0,0,0,0,0,0,0,0,0,0.0375,0.0375,0.0354,0.0389,0.0393,0.0369,0.0369,0.0369,0.0434,0.0437,0.0439,0.0442,0.0499,0.0499,0.0499,0.0451,0,0,0.05,0.05,0,0,0,0,0,0,0,0,0.0375,0.0374,0.0384,0.0387,0.0391,0.0403,0.0398,0.0399,0.0434,0.0418,0.044,0.0443,0.047,0.0473,0.0468,0.0454,0.0457,0.05,0.05,0.05,0.05,0,0,0,0,0,0,0,0.0375,0.0374,0.0359,0.0384,0.0388,0.0403,0.0405,0.0399,0.043,0.0419,0.0424,0.0427,0.0472,0.0468,0.047,0.0458,0.05,0.05,0.05,0.05,0.0504,0.0504,0,0,0,0,0,0,0.0372,0.0373,0.0358,0.0359,0.039,0.04,0.0403,0.0396,0.0429,0.0437,0.0424,0.043,0.0467,0.047,0.0473,0.0479,0.05,0.05,0.05,0.0504,0.0504,0.0504,0,0,0,0,0,0,0.0372,0.037,0.0358,0.0368,0.0368,0.0397,0.0389,0.0395,0.046,0.0433,0.0442,0.0491,0.0469,0.0473,0.0515,0.048,0.05,0.05,0.0504,0.0504,0.0504,0.0453,0,0,0,0,0,0,0.0372,0.037,0.039,0.0367,0.0367,0.0385,0.0387,0.0394,0.0453,0.0462,0.0491,0.0495,0.0471,0.0515,0.0515,0.0481,0.05,0.0504,0.0504,0.0504,0.0455,0.0452,0.0449,0,0,0,0,0,0.0373,0.0369,0.0391,0.0391,0.0385,0.0387,0.039,0.0417,0.0455,0.0486,0.0506,0.0498,0.0515,0.0516,0.0516,0.048,0.0504,0.0504,0.0504,0.0456,0.0452,0.0449,0,0,0,0,0,0,0.0379,0.0374,0.0398,0.0394,0.0417,0.04,0.0438,0.0456,0.0495,0.0519,0.0512,0.0516,0.053,0.0531,0.0533,0.0485,0.0502,0.0502,0.0466,0.0462,0.0459,0.043,0.05,0,0,0,0,0,0.0392,0.0414,0.0402,0.0422,0.0436,0.0457,0.0475,0.0485,0.05,0.0525,0.0525,0.0529,0.0515,0.052,0.051,0.0498,0.0515,0.0474,0.0471,0.0468,0.0446,0.0465,0.0461,0.0504,0.0504,0.0504,0,0,0.0406,0.0411,0.0426,0.0432,0.0461,0.0438,0.0477,0.0512,0.0483,0.052,0.0514,0.0531,0.0517,0.0488,0.0493,0.0493,0.047,0.0468,0.0465,0.0445,0.0465,0.046,0.0456,0.0504,0.0504,0.0504,0,0,0.0432,0.0455,0.0479,0.0477,0.051,0.0487,0.0513,0.0511,0.0521,0.0511,0.0519,0.0539,0.0514,0.0485,0.0468,0.0455,0.0462,0.0449,0.0394,0.0413,0.0409,0.0406,0.0441,0.0441,0.0436,0.0436,0.0436,0,0.0454,0.0456,0.0492,0.0487,0.0467,0.0511,0.0486,0.0479,0.0484,0.0475,0.051,0.0483,0.0495,0.0441,0.0423,0.0443,0.0462,0.0404,0.0407,0.0404,0.0401,0.0438,0.0439,0.0433,0.0434,0.0434,0.0434,0,0.0478,0.0468,0.0484,0.0474,0.0459,0.0457,0.0419,0.0418,0.0429,0.0408,0.0401,0.0419,0.0399,0.0399,0.0398,0.0367,0.0391,0.0409,0.0411,0.0393,0.0435,0.0436,0.043,0.0431,0.0432,0.0432,0,0,0.0525,0.0502,0.0513,0.0474,0.0439,0.0414,0.0364,0.0316,0.0287,0.03,0.0263,0.0254,0.0294,0.028,0.0299,0.0305,0.0319,0.0336,0.0338,0.0361,0.0369,0.0272,0.0266,0.0334,0.0333,0.0333,0.0412,0,0.0536,0.0514,0.0483,0.0411,0.0369,0.033,0.0263,0.0222,0.0208,0.018,0.021,0.0201,0.0236,0.0247,0.0253,0.0302,0.0318,0.0297,0.039,0.0393,0.03,0.0261,0.0332,0.0413,0.0414,0.0414,0.0414,0,0.0554,0.0519,0.0481,0.0337,0.032,0.0285,0.0185,0.0128,0.0089,0.0082,0.0085,0.0108,0.0118,0.0171,0.023,0.0214,0.0278,0.0326,0.0331,0.0249,0.0296,0.0431,0.0418,0.0417,0.0417,0.0417,0.0417,0,0.057,0.0487,0.0458,0.0419,0.0292,0.0269,0.0211,0.0143,0.0081,0.0062,0.004,0.0049,0.0082,0.014,0.0224,0.0232,0.03,0.0336,0.0314,0.0311,0.0401,0.0404,0.0381,0.0381,0.0381,0.0381,0.0381,0,0.0543,0.0501,0.0485,0.0455,0.0382,0.0295,0.0229,0.0168,0.0093,0.0012,0.0031,-0.0017,0.0076,0.0113,0.0196,0.0241,0.0289,0.0281,0.0305,0.0383,0.0382,0.0404,0.0405,0.0384,0.0383,0.0382,0.0382,0,0.0537,0.0544,0.0482,0.0412,0.0398,0.0361,0.0248,0.0174,0.0124,0.0027,0.0021,-0.0038,-0.0022,0.0063,0.0161,0.0204,0.0269,0.0286,0.0361,0.0394,0.0283,0.0282,0.0256,0.0253,0.025,0.0248,0.0246,0,0.0517,0.0516,0.05,0.0486,0.0473,0.0415,0.0352,0.0236,0.0125,-0.0008,-0.0081,-0.0087,-0.0113,-0.0011,0.0045,0.0174,0.0196,0.0257,0.025,0.0234,0.0262,0.0264,0.0267,0.0242,0.0241,0.024,0.024,0,0.0452,0.0519,0.0483,0.0491,0.0466,0.0371,0.0271,0.0194,0.0022,-0.0025,-0.0137,-0.0125,-0.0133,-0.0072,0.0024,0.0114,0.022,0.0229,0.0236,0.0231,0.0217,0.0247,0.0253,0.023,0.0232,0.0233,0.0233,0,0.0443,0.0425,0.0455,0.0438,0.0429,0.0349,0.0282,0.0139,0.0033,-0.013,-0.0167,-0.0157,-0.0163,-0.0109,-0.0037,0.0036,0.0052,0.0122,0.0135,0.0146,0.0064,0.0028,-0.002,0,0,0,0,0,0.0401,0.0388,0.0371,0.0353,0.0362,0.0358,0.0207,0.0114,-0.0032,-0.0101,-0.0137,-0.0149,-0.0105,-0.0113,-0.0053,-0.0109,0.0053,-0.0042,0.014,0.0178,0.0189,0.0098,0,0,0,0,0,0,0.0371,0.0374,0.035,0.0322,0.0326,0.0277,0.0217,0.0102,0.0026,-0.0075,-0.0049,-0.0094,-0.005,-0.0082,-0.0018,-0.0019,0.0107,-0.0042,-0.0041,0.0172,0.0182,0.0191,0.0101,0,0,0,0,0]}]]